Location: Winthrop
(48.4780°N, 120.1850°W)
Time: 16:06:51
(UTC-07:00)

Vanguard 3 - Pass Details

Date: 10 February 2023
Orbit: 508 x 3249 km, 33.3° (Epoch: 22 March)

Event Time Altitude Azimuth Distance (km) Brightness Sun altitude
Rises 19:31:54 0° 251° (WSW) 3,924 11.8 -23.2°
Reaches altitude 10° 19:34:28 10° 241° (WSW) 3,267 11.0 -23.7°
Maximum altitude 19:41:55 33° 181° (S) 2,702 9.7 -24.9°
Enters shadow 19:47:59 23° 141° (SE) 3,794 10.1 -25.9°
